STARLINK-32934, 63200

Orbit data source: Space-Track

STARLINK-32934, 63200 is a payload satellite owned by SpaceX/Seattle (US) in LEO that was launched on Thu, 13 Mar 2025 UTC via an FALCON 9 launch vehicle from the Air Force Eastern Test Range (AFETR). Payload-class satellites include a variety of spacecraft equipped with specific instruments for various scientific and technological missions. These include communications satellites like Starlink; space stations such as the ISS; scientific satellites like the Hubble; Earth observation satellites from companies like Planet Labs, Umbra, and HawkEye 360; GPS; miniature CubeSats for education and research; and military/defense satellites.

Loading next visibility...
Identifier
63200, 2025-048T
Orbit
LEO
Country
Flag of USUS
Related business
Manufacturer
SpaceX/Seattle
Mission
Operational Commercial Communications
Bus & Motor
STARLINK V2M, Unknown motor
Mass
730 kg wet, ~700 kg dry
Launch date (UTC)
2025-03-13 (1 year ago)
Launch vehicle
FALCON 9
Launch site
Air Force Eastern Test Range (AFETR)
Object type
Payload
Rocket body
Debris
Shape & HBR
Box + 2 Pan, 17.7 m
Radar Cross Section
33.884 m², Large (>1 m²)

Expand to show TLE details & history
Last TLE update: 17 hours ago

TLE from 17 hours ago
0 STARLINK-32934
1 63200U 25048T   26171.14024995  .00018009  00000-0  66199-3 0  9993
2 63200  42.9976 226.4728 0001120 268.5826  91.4897 15.27598181 72769
Epoch: 2026-06-20T03:21Z
TLE epoch observation values (Epoch: 2026-06-20T03:21:57.595Z)
Latitude
-0.00005°
Longitude
-92.37638°
Altitude
482.79 km
Speed
7.626 km/s
True Right ascension
15h 05m 53s
True Declination
0° 00' 00"
Sunlit
Object was in full shadow at epoch
Visualization orbit readout
Latitude
Unknown
Longitude
Unknown
Altitude
Unknown
Speed
Unknown
Apparent Right ascension
Unknown
Apparent Declination
Unknown
Sunlit
N/A
Visualization observer readout
Local Sidereal Time
07:13:53
Azimuth
Unknown
Elevation
Unknown
Doppler factor
Unknown
Orbital elements
Apogee altitude
485.709 km
Perigee altitude
484.172 km
Semi-major axis
6,863.077 km
Eccentricity
0.00011
Inclination
42.9976°
RAAN
226.4728°
Arg. of periapsis
268.5826°
True anomaly
91.50253°
Mean anomaly
91.4897°
Eccentric anomaly
91.49611°
Mean motion
3.81738 °/min
Orbital period
94.31 mins
BSTAR
0.00066199
Loading maneuver chart data...
Computing Atmospheric mass density...
Loading historical data...
Loading historical data...
Loading historical data...
Loading historical data...
Loading historical data...
Loading historical data...
Loading historical data...

Documentation

Showing up to 5 results
|